TimeAKST,TemperatureF,Dew PointF,Humidity,Sea Level PressureIn,VisibilityMPH,Wind Direction,Wind SpeedMPH,Gust SpeedMPH,PrecipitationIn,Events,Conditions,WindDirDegrees,DateUTC
12:16 AM,-2.2,-9.4,71,29.20,10.0,ENE,6.9,-,N/A,,Clear,70,2014-03-08 09:16:00
12:36 AM,-2.2,-7.6,78,29.20,10.0,NE,6.9,-,N/A,,Clear,50,2014-03-08 09:36:00
12:56 AM,-4.0,-11.2,71,29.19,10.0,NE,6.9,-,N/A,,Clear,50,2014-03-08 09:56:00
1:16 AM,-2.2,-7.6,78,29.19,10.0,NE,5.8,-,N/A,,Clear,50,2014-03-08 10:16:00
1:36 AM,-2.2,-11.2,66,29.19,10.0,NE,5.8,-,N/A,,Clear,50,2014-03-08 10:36:00
1:56 AM,-2.2,-7.6,78,29.19,10.0,NE,5.8,-,N/A,,Clear,50,2014-03-08 10:56:00
2:16 AM,-2.2,-11.2,66,29.19,10.0,NE,5.8,-,N/A,,Clear,50,2014-03-08 11:16:00
2:36 AM,-0.4,-7.6,72,29.18,10.0,NE,5.8,-,N/A,,Clear,40,2014-03-08 11:36:00
2:56 AM,-0.4,-7.6,72,29.17,10.0,NE,9.2,-,N/A,,Clear,40,2014-03-08 11:56:00
3:16 AM,-2.2,-9.4,71,29.17,10.0,NNE,9.2,-,N/A,,Clear,30,2014-03-08 12:16:00
3:36 AM,-4.0,-11.2,71,29.17,10.0,NE,6.9,-,N/A,,Clear,40,2014-03-08 12:36:00
3:56 AM,-4.0,-11.2,71,29.16,10.0,NNE,4.6,-,N/A,,Clear,30,2014-03-08 12:56:00
4:16 AM,-2.2,-7.6,78,29.16,10.0,NNE,5.8,-,N/A,,Clear,30,2014-03-08 13:16:00
4:36 AM,-0.4,-9.4,66,29.16,10.0,NNE,5.8,-,N/A,,Clear,30,2014-03-08 13:36:00
4:56 AM,-0.4,-7.6,72,29.15,10.0,NNE,5.8,-,N/A,,Clear,30,2014-03-08 13:56:00
5:16 AM,-0.4,-9.4,66,29.15,10.0,NNE,4.6,-,N/A,,Clear,30,2014-03-08 14:16:00
5:36 AM,1.4,-9.4,61,29.15,10.0,NNE,4.6,-,N/A,,Clear,30,2014-03-08 14:36:00
5:56 AM,-0.4,-11.2,60,29.14,10.0,NNE,3.5,-,N/A,,Clear,30,2014-03-08 14:56:00
6:16 AM,-2.2,-14.8,55,29.13,10.0,North,4.6,-,N/A,,Clear,360,2014-03-08 15:16:00
6:36 AM,-0.4,-7.6,72,29.13,10.0,Calm,Calm,-,N/A,,Clear,0,2014-03-08 15:36:00
6:56 AM,-0.4,-13.0,55,29.13,10.0,Calm,Calm,-,N/A,,Clear,0,2014-03-08 15:56:00
7:16 AM,-5.8,-16.6,60,29.12,10.0,Calm,Calm,-,N/A,,Clear,0,2014-03-08 16:16:00
7:36 AM,-2.2,-9.4,71,29.12,10.0,Calm,Calm,-,N/A,,Clear,0,2014-03-08 16:36:00
7:56 AM,-4.0,-13.0,65,29.11,10.0,North,4.6,-,N/A,,Partly Cloudy,360,2014-03-08 16:56:00
8:16 AM,-4.0,-14.8,60,29.11,10.0,North,6.9,-,N/A,,Partly Cloudy,360,2014-03-08 17:16:00
8:36 AM,-5.8,-14.8,65,29.11,10.0,North,8.1,-,N/A,,Clear,10,2014-03-08 17:36:00
8:56 AM,-0.4,-2.2,92,29.11,10.0,NE,6.9,-,N/A,,Clear,40,2014-03-08 17:56:00
9:16 AM,-0.4,-11.2,60,29.10,10.0,NE,4.6,-,N/A,,Clear,40,2014-03-08 18:16:00
9:36 AM,1.4,-9.4,61,29.10,10.0,NE,3.5,-,N/A,,Clear,40,2014-03-08 18:36:00
9:56 AM,-0.4,-9.4,66,29.10,10.0,Calm,Calm,-,N/A,,Clear,0,2014-03-08 18:56:00
10:16 AM,1.4,-7.6,66,29.10,10.0,Calm,Calm,-,N/A,,Clear,0,2014-03-08 19:16:00
10:36 AM,1.4,-7.6,66,29.09,10.0,NE,3.5,-,N/A,,Clear,50,2014-03-08 19:36:00
10:56 AM,1.4,-9.4,61,29.09,10.0,NE,3.5,-,N/A,,Clear,50,2014-03-08 19:56:00
11:16 AM,1.4,-7.6,66,29.08,10.0,Calm,Calm,-,N/A,,Clear,0,2014-03-08 20:16:00
11:36 AM,1.4,-7.6,66,29.08,10.0,Calm,Calm,-,N/A,,Clear,0,2014-03-08 20:36:00
11:56 AM,3.2,-4.0,72,29.07,10.0,NE,4.6,-,N/A,,Clear,50,2014-03-08 20:56:00
12:16 PM,3.2,-7.6,61,29.07,10.0,ENE,4.6,-,N/A,,Clear,60,2014-03-08 21:16:00
12:36 PM,3.2,-5.8,66,29.07,10.0,NE,6.9,-,N/A,,Clear,40,2014-03-08 21:36:00
12:56 PM,5.0,-5.8,61,29.06,10.0,NE,4.6,-,N/A,,Clear,40,2014-03-08 21:56:00
1:16 PM,5.0,-7.6,56,29.05,10.0,NE,3.5,-,N/A,,Clear,40,2014-03-08 22:16:00
1:36 PM,5.0,-4.0,66,29.04,10.0,East,3.5,-,N/A,,Partly Cloudy,90,2014-03-08 22:36:00
1:56 PM,5.0,-5.8,61,29.04,10.0,Calm,Calm,-,N/A,,Partly Cloudy,0,2014-03-08 22:56:00
2:16 PM,5.0,-5.8,61,29.03,10.0,ENE,3.5,-,N/A,,Clear,60,2014-03-08 23:16:00
2:36 PM,6.8,-5.8,56,29.03,10.0,ENE,3.5,-,N/A,,Clear,60,2014-03-08 23:36:00
2:56 PM,6.8,-5.8,56,29.02,10.0,Calm,Calm,-,N/A,,Clear,0,2014-03-08 23:56:00
3:16 PM,8.6,-4.0,57,29.02,10.0,Calm,Calm,-,N/A,,Clear,0,2014-03-09 00:16:00
3:36 PM,8.6,-5.8,52,29.02,10.0,Calm,Calm,-,N/A,,Clear,0,2014-03-09 00:36:00
3:56 PM,6.8,-5.8,56,29.01,10.0,Calm,Calm,-,N/A,,Clear,0,2014-03-09 00:56:00
4:16 PM,6.8,-5.8,56,29.00,10.0,Calm,Calm,-,N/A,,Clear,0,2014-03-09 01:16:00
4:36 PM,6.8,-5.8,56,28.99,10.0,ENE,3.5,-,N/A,,Partly Cloudy,60,2014-03-09 01:36:00
4:56 PM,6.8,-5.8,56,28.99,10.0,Calm,Calm,-,N/A,,Partly Cloudy,0,2014-03-09 01:56:00
5:16 PM,6.8,-5.8,56,28.98,10.0,NE,3.5,-,N/A,,Partly Cloudy,50,2014-03-09 02:16:00
5:36 PM,6.8,-5.8,56,28.98,10.0,NE,4.6,-,N/A,,Clear,40,2014-03-09 02:36:00
5:56 PM,5.0,-7.6,56,28.98,10.0,NE,4.6,-,N/A,,Clear,40,2014-03-09 02:56:00
6:16 PM,5.0,-7.6,56,28.97,10.0,NNE,9.2,-,N/A,,Clear,30,2014-03-09 03:16:00
6:36 PM,3.2,-7.6,61,28.97,10.0,NNE,9.2,-,N/A,,Clear,30,2014-03-09 03:36:00
6:56 PM,3.2,-7.6,61,28.97,10.0,NNE,8.1,-,N/A,,Clear,30,2014-03-09 03:56:00
7:16 PM,3.2,-9.4,56,28.97,10.0,NNE,10.4,-,N/A,,Clear,30,2014-03-09 04:16:00
7:36 PM,-0.4,-9.4,66,28.97,10.0,NNE,10.4,-,N/A,,Clear,30,2014-03-09 04:36:00
7:56 PM,-0.4,-9.4,66,28.97,10.0,NE,8.1,-,N/A,,Clear,40,2014-03-09 04:56:00
8:16 PM,-2.2,-13.0,60,28.97,10.0,NE,6.9,-,N/A,,Clear,50,2014-03-09 05:16:00
8:36 PM,3.2,-5.8,66,28.96,10.0,NE,10.4,-,N/A,,Scattered Clouds,40,2014-03-09 05:36:00
8:56 PM,-0.4,-7.6,72,28.96,10.0,NE,8.1,-,N/A,,Mostly Cloudy,40,2014-03-09 05:56:00
9:16 PM,1.4,-13.0,51,28.96,10.0,NNE,9.2,-,N/A,,Partly Cloudy,30,2014-03-09 06:16:00
9:36 PM,1.4,-5.8,72,28.96,10.0,NNE,10.4,-,N/A,,Clear,30,2014-03-09 06:36:00
9:56 PM,1.4,-9.4,61,28.96,10.0,NNE,10.4,-,N/A,,Scattered Clouds,30,2014-03-09 06:56:00
10:16 PM,-0.4,-11.2,60,28.97,10.0,NNE,8.1,-,N/A,,Partly Cloudy,30,2014-03-09 07:16:00
10:36 PM,1.4,-7.6,66,28.97,10.0,NNE,6.9,-,N/A,,Clear,30,2014-03-09 07:36:00
10:56 PM,-0.4,-13.0,55,28.97,10.0,NE,9.2,-,N/A,,Clear,40,2014-03-09 07:56:00
11:16 PM,-0.4,-7.6,72,28.97,10.0,NE,9.2,-,N/A,,Clear,40,2014-03-09 08:16:00
11:36 PM,-0.4,-9.4,66,28.97,10.0,NNE,9.2,-,N/A,,Clear,30,2014-03-09 08:36:00
11:56 PM,-0.4,-13.0,55,28.97,10.0,NNE,8.1,-,N/A,,Clear,30,2014-03-09 08:56:00